Location: El Álamo
(40.2307°N, 3.9945°W)
Time: 15:53:03
(UTC+00:00)

SeaSat 1 - Pass Details

Date: 19 May 2025
Orbit: 738 x 740 km, 108.0° (Epoch: 23 June)

Event Time Altitude Azimuth Distance (km) Brightness Sun altitude
Exits shadow 21:36:48 22° 86° (E) 1,578 3.8 -19.7°
Maximum altitude 21:38:31 27° 53° (NE) 1,393 3.8 -19.9°
Drops below altitude 10° 21:42:36 10° 357° (N) 2,255 5.7 -20.4°
Sets 21:45:08 0° 346° (NNW) 3,182 6.9 -20.7°
